• In Hungary
  • List of Countries
  • For 7 days
  • Water Temperature
  • Satellite Maps
  • Weather Map
  • News
  • Weather Widgets
  • user-avatar
    Login

    Hourly Weather Cornesti

    Today, 15 October, Monday

    Time Temperature Precipitation Wind Pressure Humidity
    00:00 +12°C° 0 mm 1 mps 751 mmHg 50%
    01:00 +12°C° 0 mm 1 mps 751 mmHg 52%
    02:00 +10°C° 0 mm 0 mps 752 mmHg 53%
    03:00 +9°C° 0 mm 0 mps 751 mmHg 54%
    04:00 +10°C° 0 mm 1 mps 751 mmHg 55%
    05:00 +10°C° 0 mm 1 mps 751 mmHg 56%
    06:00 +11°C° 0 mm 1 mps 751 mmHg 54%
    07:00 +11°C° 0 mm 1 mps 751 mmHg 52%
    08:00 +12°C° 0 mm 1 mps 751 mmHg 49%
    09:00 +14°C° 0 mm 1 mps 751 mmHg 44%
    10:00 +16°C° 0 mm 2 mps 751 mmHg 39%
    11:00 +18°C° 0 mm 2 mps 751 mmHg 34%
    12:00 +19°C° 0 mm 2 mps 751 mmHg 32%
    13:00 +20°C° 0 mm 2 mps 750 mmHg 30%
    14:00 +21°C° 0 mm 2 mps 750 mmHg 28%
    15:00 +20°C° 0 mm 2 mps 750 mmHg 32%
    16:00 +19°C° 0 mm 2 mps 750 mmHg 35%
    17:00 +18°C° 0 mm 2 mps 749 mmHg 39%
    18:00 +17°C° 0 mm 2 mps 749 mmHg 42%
    19:00 +18°C° 0 mm 1 mps 749 mmHg 45%
    20:00 +16°C° 0 mm 1 mps 749 mmHg 49%
    21:00 +15°C° 0 mm 1 mps 749 mmHg 51%
    22:00 +15°C° 0 mm 1 mps 749 mmHg 53%
    23:00 +14°C° 0 mm 1 mps 749 mmHg 55%

    Tomorrow, 16 October, Tuesday

    Time Temperature Precipitation Wind Pressure Humidity
    00:00 +14°C° 0 mm 1 mps 749 mmHg 58%
    01:00 +13°C° 0 mm 1 mps 749 mmHg 60%
    02:00 +13°C° 0 mm 1 mps 749 mmHg 63%
    03:00 +13°C° 0 mm 1 mps 749 mmHg 64%
    04:00 +12°C° 0 mm 1 mps 749 mmHg 66%
    05:00 +12°C° 0 mm 1 mps 749 mmHg 68%
    06:00 +13°C° 0 mm 1 mps 749 mmHg 65%
    07:00 +14°C° 0 mm 1 mps 749 mmHg 63%
    08:00 +14°C° 0 mm 1 mps 749 mmHg 60%
    09:00 +16°C° 0 mm 1 mps 749 mmHg 54%
    10:00 +18°C° 0 mm 2 mps 749 mmHg 48%
    11:00 +21°C° 0 mm 2 mps 749 mmHg 41%
    12:00 +23°C° 0 mm 2 mps 749 mmHg 39%
    13:00 +24°C° 0 mm 3 mps 749 mmHg 37%
    14:00 +25°C° 0 mm 3 mps 749 mmHg 34%
    15:00 +24°C° 0 mm 2 mps 749 mmHg 37%
    16:00 +23°C° 0 mm 2 mps 748 mmHg 40%
    17:00 +21°C° 0 mm 2 mps 748 mmHg 44%
    18:00 +21°C° 0 mm 1 mps 748 mmHg 46%
    19:00 +20°C° 0 mm 1 mps 748 mmHg 49%
    20:00 +19°C° 0 mm 1 mps 749 mmHg 52%
    21:00 +18°C° 0 mm 1 mps 749 mmHg 54%
    22:00 +18°C° 0 mm 1 mps 749 mmHg 56%
    23:00 +16°C° 0 mm 1 mps 749 mmHg 57%

    Day after tomorrow, 17 October, Wednesday

    Time Temperature Precipitation Wind Pressure Humidity
    00:00 +16°C° 0 mm 1 mps 748 mmHg 60%
    01:00 +15°C° 0 mm 1 mps 748 mmHg 62%
    02:00 +15°C° 0 mm 1 mps 748 mmHg 64%
    03:00 +14°C° 0 mm 1 mps 748 mmHg 66%
    04:00 +14°C° 0 mm 1 mps 748 mmHg 69%
    05:00 +13°C° 0 mm 1 mps 748 mmHg 71%
    06:00 +14°C° 0 mm 1 mps 748 mmHg 69%
    07:00 +15°C° 0 mm 1 mps 748 mmHg 67%
    08:00 +15°C° 0 mm 1 mps 748 mmHg 65%
    09:00 +17°C° 0 mm 2 mps 748 mmHg 59%
    10:00 +19°C° 0 mm 2 mps 748 mmHg 52%
    11:00 +21°C° 0 mm 3 mps 748 mmHg 46%
    12:00 +22°C° 0 mm 3 mps 748 mmHg 43%
    13:00 +24°C° 0 mm 3 mps 748 mmHg 40%
    14:00 +25°C° 0 mm 3 mps 747 mmHg 37%
    15:00 +22°C° 0 mm 3 mps 747 mmHg 39%
    16:00 +21°C° 0 mm 3 mps 747 mmHg 42%
    17:00 +20°C° 0 mm 2 mps 747 mmHg 45%
    18:00 +19°C° 0 mm 2 mps 747 mmHg 48%
    19:00 +18°C° 0 mm 2 mps 747 mmHg 50%
    20:00 +17°C° 0 mm 2 mps 747 mmHg 52%
    21:00 +16°C° 0 mm 2 mps 747 mmHg 54%
    22:00 +16°C° 0 mm 1 mps 747 mmHg 55%
    23:00 +15°C° 0 mm 1 mps 747 mmHg 56%

    18 October, Thursday

    Time Temperature Precipitation Wind Pressure Humidity
    00:00 +15°C° 0 mm 1 mps 747 mmHg 57%
    01:00 +14°C° 0 mm 1 mps 747 mmHg 58%
    02:00 +14°C° 0 mm 1 mps 747 mmHg 59%
    03:00 +13°C° 0 mm 1 mps 747 mmHg 60%
    04:00 +13°C° 0 mm 1 mps 747 mmHg 62%
    05:00 +13°C° 0 mm 1 mps 746 mmHg 63%
    06:00 +13°C° 0 mm 1 mps 746 mmHg 61%
    07:00 +14°C° 0 mm 1 mps 746 mmHg 60%
    08:00 +14°C° 0 mm 1 mps 746 mmHg 58%
    09:00 +16°C° 0 mm 2 mps 746 mmHg 52%
    10:00 +18°C° 0 mm 2 mps 746 mmHg 46%
    11:00 +20°C° 0 mm 3 mps 746 mmHg 40%
    12:00 +21°C° 0 mm 3 mps 746 mmHg 36%
    13:00 +22°C° 0 mm 3 mps 746 mmHg 33%
    14:00 +22°C° 0 mm 3 mps 745 mmHg 30%
    15:00 +21°C° 0 mm 2 mps 745 mmHg 33%
    16:00 +20°C° 0 mm 2 mps 745 mmHg 35%
    17:00 +19°C° 0 mm 2 mps 745 mmHg 38%
    18:00 +19°C° 0 mm 1 mps 745 mmHg 40%
    19:00 +18°C° 0 mm 1 mps 745 mmHg 42%
    20:00 +16°C° 0 mm 1 mps 745 mmHg 44%
    21:00 +16°C° 0 mm 1 mps 745 mmHg 45%
    22:00 +16°C° 0 mm 1 mps 745 mmHg 46%
    23:00 +14°C° 0 mm 0 mps 745 mmHg 47%

    19 October, Friday

    Time Temperature Precipitation Wind Pressure Humidity
    00:00 +14°C° 0 mm 0 mps 745 mmHg 48%
    01:00 +14°C° 0 mm 1 mps 745 mmHg 50%
    02:00 +14°C° 0 mm 1 mps 745 mmHg 51%
    03:00 +14°C° 0 mm 1 mps 744 mmHg 53%
    04:00 +13°C° 0 mm 1 mps 744 mmHg 55%
    05:00 +13°C° 0 mm 1 mps 744 mmHg 56%
    06:00 +13°C° 0 mm 1 mps 744 mmHg 55%
    07:00 +14°C° 0 mm 1 mps 744 mmHg 54%
    08:00 +14°C° 0 mm 1 mps 744 mmHg 53%
    09:00 +16°C° 0 mm 1 mps 744 mmHg 48%
    10:00 +19°C° 0 mm 1 mps 744 mmHg 43%
    11:00 +20°C° 0 mm 1 mps 744 mmHg 38%
    12:00 +21°C° 0 mm 1 mps 744 mmHg 36%
    13:00 +22°C° 0 mm 1 mps 744 mmHg 34%
    14:00 +21°C° 0 mm 2 mps 744 mmHg 32%
    15:00 +21°C° 0 mm 1 mps 744 mmHg 34%
    16:00 +20°C° 0 mm 1 mps 743 mmHg 37%
    17:00 +20°C° 0 mm 1 mps 743 mmHg 39%
    18:00 +19°C° 0 mm 1 mps 743 mmHg 40%
    19:00 +18°C° 0 mm 1 mps 744 mmHg 42%
    20:00 +16°C° 0 mm 1 mps 744 mmHg 44%
    21:00 +16°C° 0 mm 1 mps 744 mmHg 45%
    22:00 +15°C° 0 mm 1 mps 744 mmHg 46%
    23:00 +15°C° 0 mm 2 mps 744 mmHg 48%

    20 October, Saturday

    Time Temperature Precipitation Wind Pressure Humidity
    00:00 +15°C° 0 mm 2 mps 744 mmHg 49%
    01:00 +14°C° 0 mm 2 mps 744 mmHg 50%
    02:00 +14°C° 0 mm 2 mps 744 mmHg 52%
    03:00 +14°C° 0 mm 2 mps 744 mmHg 54%
    04:00 +13°C° 0 mm 2 mps 744 mmHg 56%
    05:00 +13°C° 0 mm 2 mps 744 mmHg 57%
    06:00 +13°C° 0 mm 2 mps 744 mmHg 58%
    07:00 +12°C° 0 mm 3 mps 744 mmHg 59%
    08:00 +13°C° 0 mm 3 mps 744 mmHg 60%
    09:00 +14°C° 0 mm 3 mps 744 mmHg 57%
    10:00 +15°C° 0 mm 4 mps 744 mmHg 53%
    11:00 +17°C° 0 mm 4 mps 745 mmHg 50%
    12:00 +18°C° 0 mm 4 mps 744 mmHg 48%
    13:00 +19°C° 0 mm 5 mps 744 mmHg 47%
    14:00 +20°C° 0 mm 5 mps 744 mmHg 45%
    15:00 +19°C° 0 mm 4 mps 744 mmHg 48%
    16:00 +18°C° 0 mm 4 mps 744 mmHg 52%
    17:00 +17°C° 0 mm 3 mps 744 mmHg 55%
    18:00 +16°C° 0 mm 3 mps 744 mmHg 59%
    19:00 +16°C° 0 mm 3 mps 744 mmHg 63%
    20:00 +14°C° 0 mm 3 mps 745 mmHg 66%
    21:00 +13°C° 0 mm 3 mps 745 mmHg 69%
    22:00 +13°C° 0 mm 3 mps 745 mmHg 73%
    23:00 +12°C° 0 mm 3 mps 745 mmHg 76%
    Show more